{"data":{"norad_id":52262,"epoch":"2026-05-25T05:15:39.389760Z","epoch_age_seconds":66174,"freshness":"FRESH","line1":"1 52262U 22041B   26145.21920590  .00001318  00000+0  10085-3 0  9991","line2":"2 52262  53.2141 125.5196 0001696  58.0534 302.0623 15.08853843225911","mean_motion":15.08853843,"eccentricity":0.0001696,"inclination_deg":53.2141,"raan_deg":125.5196,"arg_perigee_deg":58.0534,"mean_anomaly_deg":302.0623,"bstar":0.00010085,"rev_number":22591,"period_min":95.436679084629,"perigee_km":538.52781143676,"apogee_km":540.8743421124,"semimajor_km":6917.8380767746,"source":"CELESTRAK","updated_at":"2026-05-25T13:38:17.079850Z"}}